Theta_e
329 325 323 321 321 322 322 323 302 311 307 297 296 298 298 305 305 304 305 306 303 306 307 309 308 313 313 309 309 309 314 310 312 307 307 327 335 337 341 339 345 346 346 346 348 348 349 350 350 349 347 346 346 345 344 343 342 341 341 342 342 347 346 345 345 345 346 346 346 345 345 345 345 344 344 344 344 344 344 343 343 345 344 345 343 343 344 344 344 343 343 341 341 341 340 339 339
323 322 322 322 321 325 316 320 308 303 302 297 297 299 300 303 303 302 301 305 305 307 307 307 310 313 315 315 309 311 314 320 323 321 327 331 338 336 343 342 346 345 346 346 347 347 347 348 350 349 347 346 345 344 344 342 342 341 340 342 342 345 346 345 345 345 345 346 345 345 345 345 345 345 344 344 342 342 341 340 340 340 340 340 338 338 339 342 342 341 341 339 339 338 339 341 340
324 322 322 322 321 320 316 317 301 301 299 295 298 298 304 301 301 304 306 306 307 308 308 311 313 314 316 314 309 306 307 319 329 329 329 335 330 333 340 341 344 345 347 347 346 347 347 347 349 349 348 345 345 344 344 343 341 341 341 341 341 346 346 345 345 345 346 345 345 345 344 345 344 344 344 345 340 341 340 339 339 339 339 339 339 337 340 339 338 338 337 337 336 338 340 340 339
329 325 320 318 314 323 312 311 305 301 298 299 300 301 301 300 304 306 308 307 305 307 309 309 308 315 311 309 308 310 316 318 325 331 329 332 333 337 339 341 345 345 347 347 346 347 347 347 347 348 347 346 345 344 344 344 343 341 341 341 343 346 346 346 344 344 346 345 345 345 345 345 344 343 341 341 340 339 339 339 338 337 336 337 338 337 338 337 336 335 335 334 333 333 335 337 337
327 325 322 317 317 310 313 307 304 303 298 301 298 300 301 303 305 307 307 306 306 308 308 310 309 313 313 310 310 306 308 322 327 332 331 335 339 339 339 342 342 343 345 346 347 347 347 346 346 346 347 346 345 344 344 344 343 342 341 342 342 342 346 345 343 344 345 345 345 345 344 344 344 341 340 341 340 339 338 338 337 336 335 335 337 337 336 334 335 334 333 333 333 333 334 336 335
317 315 321 322 311 319 312 303 302 301 304 306 302 300 303 305 305 307 307 308 307 309 308 309 308 309 309 309 316 314 321 312 327 330 335 333 338 340 341 343 342 341 343 345 345 347 346 345 345 346 347 346 345 344 344 343 342 342 342 341 341 341 344 345 344 343 344 344 344 344 344 343 340 340 340 340 339 338 337 336 335 333 332 332 333 333 334 333 333 334 333 332 331 332 331 331 335
313 317 319 321 316 318 304 302 301 302 305 308 306 306 305 306 306 306 308 306 308 308 310 308 309 308 306 310 318 323 328 331 329 329 336 337 341 342 341 339 341 340 343 344 346 347 346 343 344 346 347 346 345 344 344 343 343 342 342 342 342 341 340 344 344 342 344 344 344 343 340 339 339 338 337 337 338 337 336 335 333 332 331 331 331 331 330 331 331 332 331 332 331 332 334 334 334
318 313 319 309 308 309 302 302 302 304 305 309 310 308 309 308 309 308 307 308 304 305 306 310 309 306 303 308 309 323 330 333 335 338 338 337 342 342 342 340 340 340 342 346 347 346 346 343 344 345 346 346 345 344 344 344 343 343 342 342 342 341 340 339 339 340 340 342 340 339 338 337 337 337 337 338 337 336 335 334 333 332 331 330 331 330 330 332 330 331 331 331 331 330 333 333 332
315 314 322 311 303 309 303 302 303 308 307 309 309 314 315 310 310 309 307 310 308 309 306 307 308 303 304 311 314 323 326 332 337 338 337 338 338 341 340 337 339 340 343 347 345 344 344 342 343 344 345 346 345 345 345 344 344 343 342 342 341 340 340 339 340 339 339 339 338 338 337 337 336 335 335 337 337 335 334 333 330 330 330 330 331 331 331 331 331 332 331 328 330 329 329 330 330
311 314 307 308 309 299 301 302 301 305 306 310 310 312 312 311 309 309 309 308 309 307 307 308 307 305 305 313 320 323 324 335 336 335 337 337 338 340 340 339 340 341 345 345 344 343 343 345 342 343 344 344 345 345 345 345 344 343 343 342 342 341 340 340 339 339 340 339 339 338 338 337 336 334 333 335 335 335 334 332 331 331 332 332 330 331 331 331 330 330 330 331 330 328 327 326 328
308 314 319 305 300 298 298 300 303 306 307 309 310 313 314 312 311 311 310 309 312 307 306 308 305 305 306 311 313 325 331 335 334 332 335 337 340 341 337 340 341 343 344 345 345 344 343 343 344 341 342 343 344 345 345 345 343 344 343 342 342 341 340 340 340 340 339 339 339 339 337 337 336 335 334 333 339 337 334 333 330 333 332 329 332 330 329 329 330 330 330 330 329 331 331 331 330
305 306 309 300 299 299 300 300 302 305 308 308 308 313 313 313 312 308 308 306 309 309 306 306 304 306 308 316 317 327 332 333 333 334 335 337 338 339 339 341 342 343 344 343 342 344 343 343 343 344 340 340 341 342 343 344 345 345 345 344 343 342 341 341 340 339 340 339 339 339 338 338 337 335 334 339 339 339 334 334 333 329 332 330 332 332 331 331 329 329 329 330 329 330 331 331 332
307 310 304 301 300 301 302 302 302 305 305 306 312 310 313 311 309 310 309 309 309 307 306 307 309 308 304 312 322 328 328 332 334 335 335 336 339 337 341 341 342 342 343 344 343 343 344 343 343 343 340 338 339 340 341 342 345 346 345 345 345 344 343 342 343 340 340 340 339 342 341 338 337 337 337 339 338 338 335 338 337 332 331 331 332 332 331 332 331 331 331 330 329 329 329 329 330
307 310 309 300 305 303 301 302 303 301 302 308 310 311 312 309 308 308 308 307 307 305 307 310 309 307 310 318 321 322 327 332 334 335 335 337 339 339 340 340 342 341 342 342 342 341 342 343 343 343 341 341 341 339 338 340 342 344 343 343 344 344 343 343 342 341 342 343 342 342 343 339 339 339 340 340 338 337 336 334 335 337 335 333 332 332 332 332 332 331 332 331 332 332 331 330 330
306 313 306 305 301 302 303 300 302 301 302 307 310 309 307 307 307 307 307 304 304 307 309 311 310 310 305 312 315 323 327 332 333 335 335 337 338 339 339 340 340 341 340 342 343 342 341 341 343 342 342 342 342 342 341 340 338 340 340 341 342 342 342 341 340 340 340 339 338 338 340 342 340 340 340 338 335 336 335 334 333 335 335 335 334 334 333 333 333 333 333 332 331 331 332 331 331
308 309 307 300 298 300 302 302 304 303 303 307 308 310 306 305 306 305 306 306 306 310 310 305 314 310 315 318 322 327 330 332 334 334 335 335 336 338 338 337 338 337 339 341 341 341 341 342 340 341 342 341 341 341 342 341 336 336 337 338 339 339 340 339 337 337 337 336 334 332 334 335 338 337 338 337 335 334 336 331 331 332 336 335 335 335 335 334 333 333 333 333 332 332 332 332 334
309 309 301 299 297 299 302 302 303 299 305 306 309 310 304 302 306 306 308 308 306 305 308 308 310 321 317 320 328 330 331 332 331 333 333 332 332 331 333 333 334 335 338 337 338 340 340 342 339 340 340 340 340 340 340 342 340 334 334 333 334 335 335 335 333 331 330 330 328 329 331 334 335 335 336 336 335 333 329 328 329 331 334 336 336 336 335 335 334 334 334 334 333 333 335 335 334
306 299 299 297 300 299 304 304 305 308 307 308 307 308 306 302 305 305 308 307 306 307 307 314 322 321 322 326 329 330 331 331 331 329 328 328 329 328 327 329 330 330 332 334 336 338 339 340 341 340 341 340 339 338 340 339 339 337 341 338 337 332 330 330 331 335 339 337 328 332 335 336 336 334 334 338 334 334 331 327 327 329 332 334 336 336 336 336 336 336 335 334 334 335 334 327 327
300 300 300 297 300 303 308 311 309 307 307 307 307 306 304 302 306 306 304 308 310 310 312 314 317 322 325 327 328 330 330 329 329 328 326 326 326 326 327 328 328 330 330 331 333 336 338 338 340 339 340 339 340 339 339 338 340 340 337 340 339 334 336 336 337 337 337 337 337 337 335 336 336 335 334 336 336 330 334 327 328 329 330 332 334 335 336 336 336 336 337 336 336 335 330 327 328
301 299 296 299 304 306 309 310 309 310 313 307 306 303 302 303 304 309 308 308 309 307 309 312 313 317 321 325 327 328 328 327 328 327 326 325 326 326 326 327 327 329 330 331 333 337 336 335 338 338 337 338 339 337 338 337 339 339 337 338 336 337 337 336 336 335 334 335 336 336 336 336 336 336 339 342 343 336 332 326 326 327 328 329 330 333 333 333 334 335 335 335 335 332 330 329 328
300 299 296 299 303 303 307 310 311 311 309 311 306 304 301 303 304 304 306 305 306 309 315 315 314 317 321 324 325 326 326 325 326 326 325 325 326 326 326 327 327 331 332 333 333 334 334 335 335 337 339 339 336 337 336 337 337 336 335 334 334 334 334 335 335 334 333 332 333 333 332 333 335 335 334 335 336 335 333 332 329 329 330 330 327 330 331 332 332 330 330 330 329 330 328 328 327
301 298 301 302 304 302 305 308 311 311 314 314 305 302 300 304 303 301 301 299 303 311 317 319 319 321 322 322 324 325 324 324 324 324 324 324 324 325 326 326 329 329 331 329 331 333 334 335 335 335 338 339 338 338 337 337 337 336 335 334 333 333 332 330 330 330 331 333 332 331 331 330 330 331 332 333 335 335 334 333 333 332 332 332 330 329 331 331 330 330 329 329 330 329 329 328 327
293 298 300 302 303 301 305 305 307 311 312 307 304 304 304 301 300 301 300 299 302 318 320 320 313 309 309 311 314 315 319 323 323 323 323 323 324 325 325 326 327 326 327 328 329 331 334 335 334 335 335 337 337 337 336 335 335 335 334 333 333 332 330 329 329 329 328 329 332 331 330 329 328 327 329 330 332 334 334 334 333 334 333 332 331 331 330 330 330 329 329 329 328 328 327 326 325
296 293 298 300 302 302 307 305 309 309 307 304 304 304 301 300 296 301 301 303 306 311 318 312 308 308 309 307 307 307 306 306 308 312 311 310 312 315 320 325 326 327 327 327 328 330 332 333 334 334 334 334 334 335 333 332 334 333 334 333 333 330 328 327 328 329 330 328 330 329 328 328 327 326 327 328 328 330 332 334 334 333 333 333 332 331 330 329 328 327 328 327 327 327 326 325 325
295 294 298 300 303 306 307 308 307 305 304 304 303 300 298 299 298 300 300 305 308 309 308 307 306 306 306 305 304 304 305 305 306 307 309 309 310 310 311 312 315 327 326 328 330 329 330 331 332 332 333 334 334 334 332 333 333 332 332 332 331 330 327 326 327 328 327 328 328 328 328 326 325 325 325 327 327 328 329 331 331 332 333 332 332 330 330 329 329 327 327 326 326 326 325 325 324
297 296 300 303 304 307 306 310 306 304 302 302 299 298 299 300 301 298 302 305 308 307 305 304 303 302 302 302 302 302 303 303 304 305 306 307 308 308 308 309 310 311 316 323 329 330 330 332 332 332 333 334 334 334 333 332 332 332 331 332 332 328 326 326 327 327 327 327 327 328 328 326 324 322 323 325 326 326 328 329 329 331 332 333 331 330 330 330 328 327 327 326 326 325 324 324 323
300 298 301 303 304 305 307 308 307 303 301 301 297 296 297 300 299 294 301 307 304 304 303 303 301 300 300 301 301 302 302 303 303 305 305 305 305 306 306 307 308 310 311 311 313 320 330 331 332 333 333 334 335 333 333 334 333 332 332 332 333 331 328 328 326 326 326 326 327 327 328 327 325 324 324 324 325 325 327 327 327 328 330 331 332 331 330 328 327 326 326 325 325 325 325 325 323
301 301 302 302 304 304 305 306 301 301 299 300 298 296 297 298 297 295 300 302 303 302 301 301 300 300 300 300 300 301 303 304 304 304 302 303 303 304 304 305 306 308 309 309 312 314 317 328 333 331 332 332 333 333 334 333 333 333 333 333 332 333 331 330 328 327 326 327 328 328 327 326 324 323 323 323 324 324 324 325 326 326 325 326 330 330 330 329 326 326 326 326 324 324 324 323 322
300 300 297 300 301 299 301 302 301 301 298 301 300 295 293 295 293 298 301 301 300 299 299 300 299 299 299 299 299 300 300 302 304 303 303 303 304 304 303 305 305 306 308 309 310 311 313 315 317 330 333 333 333 334 332 332 333 333 332 332 333 333 329 328 328 329 328 328 327 327 327 327 324 323 322 322 322 323 323 324 324 324 326 325 325 324 325 325 324 324 323 324 325 326 326 325 324
300 300 299 297 297 295 299 303 304 301 301 303 300 285 289 293 296 299 303 299 298 297 297 298 298 298 298 299 298 299 300 300 301 304 304 304 303 303 303 304 305 305 306 307 308 308 311 313 315 317 319 327 331 332 333 334 333 333 334 333 333 331 328 327 327 328 328 327 326 326 327 327 326 324 323 322 322 322 323 323 322 323 324 324 324 324 323 322 322 321 322 321 321 322 322 322 322
295 299 299 293 292 290 299 298 300 299 303 302 300 286 288 293 295 298 299 298 296 295 296 296 296 297 297 298 298 298 298 299 299 301 303 305 305 304 303 303 304 304 305 305 306 307 309 310 311 312 314 317 320 331 332 331 332 332 331 332 332 332 332 331 330 330 329 327 327 326 327 326 326 326 325 323 322 321 321 320 320 321 324 324 323 323 323 323 322 321 320 321 321 320 320 320 320
296 291 289 293 291 291 294 297 299 298 298 300 296 287 289 291 293 296 298 297 296 294 295 296 296 296 296 297 297 297 297 298 299 299 300 301 303 304 303 302 303 304 303 304 305 306 306 308 309 309 310 311 313 316 321 332 332 331 331 330 331 332 332 332 332 332 331 331 330 327 326 327 327 327 326 326 323 322 322 321 320 322 322 323 322 321 322 322 321 322 321 321 319 319 320 320 320
294 290 288 289 292 290 291 294 298 300 297 298 295 287 290 289 293 296 297 296 296 294 293 295 295 295 296 296 296 296 296 297 298 298 299 300 300 301 301 302 302 303 303 303 304 304 305 306 306 307 307 308 309 311 315 320 332 331 331 331 332 332 332 332 332 332 332 332 331 331 328 327 327 327 327 325 323 323 322 322 322 323 323 322 321 321 321 321 320 321 320 320 320 318 318 318 318
287 290 287 291 289 288 285 292 296 296 294 290 293 288 287 289 292 294 296 296 294 293 294 294 295 294 294 295 295 295 295 295 295 296 297 299 299 300 300 302 301 302 302 303 303 303 303 304 305 306 306 307 308 309 311 316 321 330 329 330 329 331 331 332 332 332 332 332 332 331 332 330 326 327 326 325 324 324 323 322 322 323 324 323 322 322 321 321 321 321 320 320 320 319 318 318 318
285 286 286 288 290 289 286 286 290 292 291 288 288 288 288 289 291 293 294 296 294 294 294 294 293 294 294 294 294 294 294 294 294 296 297 297 298 298 299 299 300 300 301 301 302 302 303 303 304 304 304 305 306 307 309 311 314 318 323 331 331 330 329 330 331 332 332 332 332 332 330 331 330 328 327 326 325 324 323 321 323 323 324 323 323 322 321 321 320 320 319 319 320 320 319 319 319
288 288 290 288 285 285 286 289 292 291 287 286 286 285 287 289 290 291 293 294 293 293 295 294 294 293 293 293 294 293 293 293 296 297 297 297 297 297 298 298 298 299 299 300 300 301 301 301 302 302 303 304 305 306 308 308 309 310 313 319 323 328 330 329 331 332 332 332 332 332 331 331 330 329 329 328 327 326 325 325 325 326 325 325 324 323 322 320 320 319 319 318 319 319 319 319 319
292 290 288 287 285 285 288 288 290 291 287 286 286 287 287 288 289 291 292 293 292 291 291 292 293 292 292 292 293 293 293 293 296 296 297 296 297 297 297 297 297 298 298 298 299 299 299 299 300 300 301 303 303 303 305 305 305 306 309 310 313 320 321 325 329 330 331 332 332 332 332 331 331 331 330 329 328 326 326 327 326 325 326 325 325 324 324 323 322 321 319 319 318 318 318 319 318
289 288 287 285 286 284 288 288 291 292 287 285 287 286 286 287 289 290 292 291 290 290 290 291 292 293 292 292 292 292 293 295 295 295 295 295 296 296 296 296 297 295 296 297 297 297 298 298 298 299 300 301 301 302 303 304 305 305 305 306 309 311 311 313 315 317 318 322 326 330 331 331 331 331 330 331 329 329 327 327 326 326 326 325 325 325 324 321 322 322 322 321 320 318 318 318 319
291 288 287 285 286 288 288 289 290 290 288 284 287 285 286 287 289 290 290 290 291 292 291 291 291 291 291 291 291 292 292 292 293 294 294 295 295 295 295 295 296 296 296 296 297 297 297 297 297 298 299 299 300 301 302 302 304 304 305 305 306 306 308 310 311 311 313 315 317 320 323 326 331 331 331 330 330 330 329 328 327 327 326 325 324 324 324 323 322 321 321 321 319 320 319 319 318
289 288 286 284 286 284 281 287 289 289 287 284 286 284 285 288 290 290 291 291 291 292 292 292 292 291 290 291 291 291 291 291 291 292 292 294 294 294 294 294 295 295 295 296 296 296 296 296 296 297 297 298 298 300 301 301 303 303 304 304 305 305 305 307 308 309 309 309 310 313 317 320 323 325 330 330 330 330 329 328 328 327 327 327 326 324 323 322 322 322 322 321 321 318 318 317 319
288 290 287 285 286 286 286 285 287 289 289 289 286 283 283 286 285 287 290 292 291 291 291 291 292 292 292 292 292 292 291 291 291 291 292 293 293 293 294 294 295 294 294 295 296 296 296 295 295 296 296 297 298 299 299 300 300 300 301 302 302 302 303 303 304 304 305 306 307 307 309 313 318 320 321 324 328 329 329 329 328 328 327 327 326 325 325 325 324 324 323 322 322 320 317 317 317
287 289 290 288 288 286 286 287 286 284 283 288 285 277 278 284 285 286 288 289 288 289 289 289 290 291 291 290 290 291 292 292 291 290 291 292 293 293 293 294 294 293 294 295 296 296 295 295 295 295 296 296 296 297 298 299 298 298 298 298 297 297 298 299 300 301 302 302 304 305 307 308 311 314 316 319 321 324 329 330 329 328 327 327 327 326 326 326 325 325 325 324 323 323 321 318 317
285 286 292 291 289 287 286 286 286 280 278 287 289 278 275 283 283 285 287 288 288 289 289 288 289 289 289 289 289 289 290 290 291 291 291 291 292 292 293 293 293 293 293 295 295 295 295 295 294 294 295 295 296 296 297 298 296 297 296 297 297 297 297 298 301 302 301 302 304 303 305 306 308 309 311 314 316 319 322 326 329 328 329 329 327 327 326 326 326 326 326 325 324 323 322 319 319
284 293 293 291 289 287 287 287 286 284 288 287 287 283 276 276 282 286 287 286 286 287 288 288 288 288 288 288 289 288 289 289 290 290 290 291 291 291 291 292 293 293 294 294 294 294 294 294 293 293 294 294 294 295 296 296 295 295 295 296 297 296 297 297 299 300 301 301 301 302 303 305 306 307 309 309 310 313 315 317 318 322 326 328 327 327 327 327 327 327 327 327 326 324 323 321 320
287 292 295 290 290 289 290 288 285 285 283 278 281 284 276 276 280 285 285 282 284 285 287 288 288 288 288 288 288 288 289 289 289 288 289 289 290 291 291 291 292 293 293 293 293 293 293 293 293 293 292 293 293 294 295 294 295 295 294 295 294 295 297 298 299 299 299 299 300 301 302 303 303 305 306 306 308 308 309 310 314 317 319 322 325 327 327 328 327 327 326 326 325 325 324 323 322
291 293 294 292 293 291 289 285 284 283 280 275 280 282 274 275 280 281 283 282 282 284 286 288 289 289 288 288 288 289 289 289 289 288 288 288 290 290 291 292 292 292 293 294 293 293 293 292 292 291 291 292 293 293 293 293 293 294 293 293 293 293 295 296 297 296 296 297 298 299 300 301 301 302 303 305 306 306 306 307 310 312 314 317 318 324 326 327 327 327 327 326 326 324 325 324 322
293 293 290 289 289 287 287 285 283 281 274 276 283 282 279 271 277 279 279 281 283 284 285 288 289 289 289 289 289 289 288 288 288 287 288 288 289 290 291 291 291 292 292 292 292 293 292 292 291 290 290 291 291 292 292 291 292 293 293 293 293 293 293 294 294 293 293 295 295 297 298 298 299 299 300 302 303 303 304 306 307 309 311 312 314 316 318 322 325 327 327 326 326 325 324 324 322
289 288 285 284 283 285 283 282 282 274 272 277 280 281 281 269 272 280 282 284 285 285 284 286 287 288 289 289 289 289 288 288 288 287 287 287 288 288 289 289 290 290 290 290 291 291 291 291 290 290 290 290 291 291 291 290 291 292 292 292 293 293 293 293 292 291 292 293 295 295 296 296 296 298 298 298 299 301 302 303 305 307 308 310 311 312 314 316 320 323 326 326 325 326 325 324 323
287 284 282 276 275 277 274 277 272 273 272 278 279 281 275 275 277 281 283 284 285 286 287 287 288 289 289 289 289 288 288 288 287 286 286 287 287 287 287 288 288 288 289 289 290 290 290 290 290 289 289 289 290 290 290 290 290 290 291 291 292 293 293 293 292 292 292 292 293 293 293 293 294 295 296 296 297 299 299 300 301 303 305 309 310 310 311 313 315 318 321 324 325 325 325 324 323
285 282 279 274 271 269 268 271 274 273 276 278 278 280 274 276 279 284 283 285 286 287 288 288 289 289 289 289 288 288 288 287 287 286 285 285 286 287 287 287 287 287 287 288 288 289 289 289 289 288 288 289 289 289 289 289 289 290 290 291 291 292 292 292 292 292 293 293 293 293 293 292 293 293 294 295 297 297 298 299 300 301 304 306 308 309 310 311 313 314 316 319 322 324 325 324 324
283 285 282 277 274 269 266 269 266 269 273 277 280 273 269 272 275 284 285 287 287 288 288 289 289 290 290 290 288 287 287 286 285 285 285 285 286 286 286 287 286 286 287 287 287 288 288 288 288 287 287 287 288 288 288 288 289 289 289 290 290 290 290 290 291 292 292 292 293 292 292 293 292 293 293 295 296 296 297 298 298 299 301 303 305 307 309 310 310 312 313 314 318 322 323 323 323
284 286 286 279 275 278 272 274 273 271 272 272 273 272 275 276 282 284 286 286 286 287 287 287 287 289 290 289 288 287 286 286 286 285 285 285 285 285 286 286 286 286 286 286 286 287 287 287 287 286 286 286 287 287 287 287 288 288 288 289 289 289 289 289 289 290 290 291 291 291 291 292 293 293 293 294 294 295 295 296 296 297 298 300 303 304 306 307 308 309 310 312 313 317 320 321 323
282 282 275 280 285 281 275 277 279 276 272 269 275 275 278 281 283 284 285 284 285 285 285 284 285 286 288 288 288 287 287 286 285 285 284 284 285 285 286 285 285 285 285 285 286 286 286 286 286 285 286 286 286 286 286 286 287 287 287 288 288 288 287 287 287 288 289 289 289 290 290 291 292 293 293 294 293 293 294 294 295 295 295 297 299 302 304 305 306 306 308 309 312 314 315 318 321
282 276 278 285 285 278 275 270 272 271 268 270 274 272 274 274 272 283 283 282 283 284 283 283 284 284 285 287 288 287 286 286 285 285 285 285 285 285 285 285 285 285 284 284 285 285 285 286 285 285 285 284 285 285 285 286 286 287 287 287 287 287 287 287 287 287 288 287 287 288 289 289 290 291 292 293 292 292 292 293 293 293 294 296 297 299 301 304 304 305 306 308 310 312 313 315 317
283 280 284 279 274 273 276 274 267 265 264 267 273 275 275 276 276 279 280 281 282 283 284 283 282 283 284 286 287 287 286 286 285 284 283 284 283 284 284 284 284 284 285 284 285 285 285 284 284 284 284 284 284 285 285 285 285 286 287 286 286 286 286 286 287 287 287 286 286 286 287 288 288 289 289 290 290 290 290 291 292 292 294 294 295 296 299 301 303 303 304 305 308 311 311 311 313
287 287 282 281 277 274 271 272 272 272 266 265 268 273 270 280 279 281 281 283 283 283 283 283 282 283 283 285 287 286 285 285 285 283 283 284 284 284 284 284 283 284 284 284 284 285 284 284 284 284 283 283 283 284 284 284 285 285 285 285 285 285 285 286 286 286 286 285 285 286 286 286 286 287 288 289 289 289 289 289 290 292 292 293 293 294 295 298 300 301 302 304 306 308 308 310 311
278 278 276 278 277 277 276 274 272 270 268 268 266 265 272 278 283 283 283 283 283 283 283 284 284 283 283 284 286 286 285 285 284 284 283 284 283 283 284 284 284 284 283 283 284 283 284 284 283 283 283 282 282 283 283 284 284 285 284 284 284 284 284 285 285 285 285 284 285 285 285 286 286 286 287 287 287 288 288 289 289 290 290 291 291 292 293 295 297 299 301 302 303 304 304 305 307
277 276 274 276 275 271 267 266 276 271 270 268 266 266 273 281 285 284 283 283 284 284 284 285 285 283 283 284 285 286 285 285 283 283 283 284 284 283 283 283 284 283 283 282 283 283 283 283 283 282 282 282 282 283 283 284 283 284 283 284 283 283 284 284 283 284 284 284 284 284 285 285 284 285 286 286 286 287 288 288 288 288 289 289 290 291 292 294 294 296 298 301 301 302 303 303 304
Wind_Speed
12 10 9 9 7 4 4 2 3 2 2 5 4 4 2 3 4 1 0 4 2 2 4 2 4 4 5 1 4 5 11 7 4 3 1 1 1 5 2 4 16 14 13 11 10 10 10 12 14 15 15 15 15 14 13 11 10 9 10 9 10 10 9 7 6 6 6 5 6 7 8 8 8 9 9 8 8 9 9 8 9 11 9 10 8 8 10 9 8 9 8 8 8 8 9 8 8
10 10 11 9 4 2 2 3 1 3 3 4 6 6 5 4 0 2 3 11 3 2 2 3 2 2 3 4 4 3 10 9 8 5 3 4 3 1 1 2 18 16 12 11 11 10 10 10 14 15 16 15 14 14 13 12 10 10 11 10 8 10 8 7 6 6 6 5 6 7 7 8 9 8 8 7 6 7 8 7 7 7 7 8 5 8 8 7 8 9 9 7 7 7 9 9 10
10 9 8 7 5 3 3 2 3 3 4 5 3 5 1 3 2 8 11 8 6 3 2 3 1 1 0 3 1 5 3 8 11 9 5 5 7 2 3 3 12 14 14 10 10 10 8 10 13 14 15 15 15 14 13 12 11 10 10 11 10 9 8 7 7 7 7 6 7 7 8 9 8 7 6 6 4 7 6 6 6 7 6 7 7 4 9 9 7 7 7 8 7 9 8 8 9
9 7 6 4 3 2 2 2 4 5 5 6 0 1 4 4 10 8 9 5 5 1 0 2 0 0 4 4 4 1 6 5 6 7 5 2 2 6 4 5 14 12 11 9 10 10 8 10 12 14 14 15 15 14 13 13 12 11 10 8 11 9 9 8 7 8 7 7 8 8 9 9 8 6 5 6 6 6 7 5 6 6 5 5 6 6 7 8 7 7 7 6 6 5 6 7 7
8 5 6 3 2 2 1 3 5 3 7 4 3 2 5 7 7 9 5 5 2 1 2 1 0 1 3 1 2 2 2 8 10 9 5 3 3 5 5 5 11 11 11 8 10 10 10 14 11 13 13 15 15 15 13 13 12 11 10 9 8 9 10 9 8 9 8 8 7 7 7 7 8 5 6 8 8 6 6 8 7 6 4 3 5 7 5 5 6 7 6 6 4 5 6 6 5
8 6 4 3 2 2 2 2 4 7 7 6 7 3 1 10 7 3 6 5 2 1 4 2 2 1 2 4 4 3 6 1 4 7 5 1 3 4 4 5 11 8 11 10 7 9 11 14 13 12 12 14 15 15 13 13 13 11 10 9 9 7 10 10 8 8 8 7 6 5 6 5 6 5 5 7 8 7 6 6 6 4 2 2 2 4 4 4 4 4 5 5 4 4 3 3 8
4 3 2 2 4 1 2 5 6 5 5 5 6 1 8 7 6 3 6 5 2 1 1 3 2 3 1 3 7 7 8 6 5 4 4 3 3 3 4 3 11 10 8 9 9 10 12 14 14 13 13 14 15 14 13 12 12 10 10 9 9 7 6 10 8 7 8 7 7 6 5 7 3 5 3 3 7 7 5 4 3 2 2 2 2 2 1 1 2 3 3 5 5 6 9 6 7
5 2 1 4 2 3 5 6 7 5 6 4 5 6 10 10 3 1 3 2 2 1 2 1 0 2 2 4 6 4 9 10 9 8 6 3 2 2 3 3 10 9 9 8 9 9 13 14 13 13 13 13 14 14 13 12 11 10 9 9 9 8 7 6 6 5 3 7 5 6 5 5 5 3 4 7 6 5 5 5 4 4 3 3 2 1 4 4 3 3 4 4 3 3 7 7 5
4 4 2 3 5 2 4 7 7 8 10 7 3 2 4 4 4 0 2 1 3 1 3 2 0 1 0 10 7 5 7 8 9 9 7 5 3 0 4 4 10 9 11 9 10 10 10 12 12 12 12 12 12 12 11 10 10 10 8 9 8 8 6 6 6 4 3 4 2 3 4 4 3 2 2 5 5 4 5 4 3 2 3 2 3 3 3 3 3 3 2 2 2 3 3 3 2
3 3 2 2 1 6 5 5 8 6 7 7 4 1 7 3 3 2 1 2 3 2 4 4 3 2 2 12 8 4 4 8 9 8 6 6 3 2 2 8 9 12 11 10 9 10 8 12 13 12 11 11 11 10 9 9 10 9 9 8 7 6 6 6 5 5 4 4 4 2 2 3 2 2 1 2 3 4 3 3 1 3 2 3 2 3 3 2 2 1 2 3 2 1 2 0 1
2 3 1 4 6 6 6 5 8 7 8 6 2 2 5 2 2 0 1 2 2 1 3 3 2 3 1 7 5 1 4 8 9 9 6 5 3 1 3 7 6 12 11 9 8 9 8 8 12 11 11 10 10 9 9 8 9 9 8 8 7 6 6 5 5 4 4 4 3 3 2 2 3 2 3 2 3 4 3 3 2 2 3 2 3 2 1 1 1 1 2 1 1 1 2 1 2
3 3 4 4 6 7 6 6 7 7 7 3 0 1 6 3 0 1 4 4 5 3 2 4 1 3 5 6 3 5 9 9 8 7 4 4 3 4 5 6 7 9 11 11 7 5 8 7 6 9 11 10 9 8 7 8 8 8 7 7 7 6 6 6 5 4 4 3 3 4 3 3 3 3 3 5 4 4 3 3 3 1 2 2 2 3 3 3 2 1 1 1 2 2 2 2 2
4 3 5 5 6 5 6 8 7 6 5 0 4 3 1 3 2 1 2 5 3 3 4 4 3 4 3 6 5 7 10 8 7 4 5 7 4 2 3 5 6 7 8 9 9 6 4 8 7 5 7 11 9 7 7 7 7 6 5 5 5 5 6 5 4 5 5 4 4 2 3 3 3 3 3 4 4 3 4 2 3 3 3 3 3 2 1 3 3 3 3 3 3 3 3 4 4
4 4 1 6 5 7 8 6 4 4 4 2 6 2 2 2 4 5 3 2 3 2 1 6 3 4 10 8 5 5 6 6 5 5 7 7 4 4 5 5 5 4 5 7 8 9 7 6 7 6 6 6 5 6 8 8 7 7 6 5 3 2 2 2 0 1 2 1 1 1 2 3 3 3 2 3 4 4 3 3 2 1 4 5 4 4 4 4 4 3 4 4 4 6 5 5 6
6 2 3 0 4 7 8 8 7 4 2 5 2 4 3 4 3 1 3 4 5 3 2 8 3 3 5 2 3 5 6 6 6 7 7 7 6 6 6 5 4 3 4 6 6 7 7 5 4 6 4 4 5 5 3 5 8 8 7 6 4 5 3 2 1 2 2 1 3 3 3 2 3 3 3 4 4 5 5 4 4 3 3 5 6 6 6 6 5 5 6 6 6 7 7 7 8
4 3 2 4 6 7 7 9 7 4 2 7 3 4 8 5 5 2 4 3 2 3 6 5 7 5 7 12 8 8 8 6 6 7 7 8 6 3 3 4 3 3 6 3 3 6 2 3 5 5 5 3 5 4 4 4 6 8 7 7 6 6 5 5 3 2 2 2 1 1 1 1 3 3 6 4 7 7 7 5 6 5 5 6 6 6 6 6 6 7 6 7 7 8 7 8 6
4 3 5 6 10 8 5 8 8 6 3 3 4 2 5 4 2 3 2 4 5 5 7 6 9 9 11 9 10 10 8 6 6 6 6 5 5 4 3 3 3 2 2 3 4 4 7 1 7 4 5 4 6 5 3 3 4 6 5 5 6 5 4 4 4 3 2 2 3 3 3 3 3 3 5 5 7 5 7 8 7 6 6 7 7 6 6 6 7 7 7 8 8 8 7 7 5
4 7 7 10 9 11 6 7 4 2 5 2 5 6 8 7 2 3 5 6 7 6 9 11 14 13 10 9 10 8 7 6 5 5 4 4 4 4 3 3 2 3 2 3 1 6 2 6 2 2 4 2 3 4 3 5 3 5 5 4 4 5 5 4 3 3 4 3 5 4 3 4 4 5 4 7 6 6 8 10 9 8 7 6 6 6 6 6 5 7 9 9 9 8 4 3 4
7 4 7 10 10 8 7 5 7 2 6 7 10 15 15 12 10 6 4 15 14 15 14 11 11 13 11 9 8 8 7 5 5 4 5 5 5 4 5 2 3 2 3 2 2 1 4 3 6 2 2 1 1 4 3 0 4 4 4 5 5 6 6 6 4 4 4 5 5 5 5 5 5 5 5 4 6 8 8 11 11 10 8 7 6 6 5 5 5 7 8 9 8 7 4 4 5
8 6 8 10 5 10 11 9 6 3 5 7 11 15 19 12 12 7 12 16 18 16 11 11 12 13 12 9 9 8 7 6 7 7 7 6 4 4 5 4 3 3 3 3 4 3 4 2 3 3 3 4 1 2 4 3 4 4 4 6 4 5 6 6 5 4 4 4 4 5 5 5 6 5 5 7 6 5 6 10 12 11 10 8 8 5 6 7 9 10 10 9 6 4 5 5 6
6 9 9 6 7 7 13 14 11 7 5 5 11 13 17 14 13 14 10 14 14 11 12 10 12 12 12 10 8 7 9 9 8 7 7 6 4 5 5 6 4 5 4 2 3 2 3 3 3 1 2 4 5 1 1 0 1 2 5 3 5 6 6 6 6 6 5 4 4 5 4 4 5 5 4 5 5 4 3 4 4 5 4 5 7 5 5 5 6 6 5 7 5 6 6 6 6
4 12 7 5 7 10 6 11 14 14 9 7 12 12 8 8 17 17 17 15 11 10 11 10 10 11 12 12 11 10 11 11 11 10 10 10 11 10 9 4 5 4 3 4 3 3 2 3 2 3 1 0 2 2 3 3 3 2 3 3 1 3 1 3 3 3 3 5 4 3 3 4 4 3 3 3 4 5 5 5 5 5 4 5 5 6 6 5 5 5 6 6 6 6 7 7 7
8 7 10 10 9 4 6 11 11 12 13 12 10 11 14 14 10 12 18 15 10 8 10 16 20 20 19 18 16 17 14 13 12 12 12 11 10 10 10 8 8 6 4 4 4 3 2 1 2 2 3 0 2 3 4 4 5 5 5 3 1 3 3 1 2 2 1 2 2 3 3 4 5 6 4 4 4 4 5 5 5 5 5 6 6 6 6 6 5 5 5 5 5 6 7 6 5
8 5 9 11 9 9 10 10 13 15 20 15 11 12 13 14 16 10 14 12 13 8 15 18 19 19 20 20 18 19 19 19 18 18 17 17 17 15 12 9 5 4 3 3 3 2 4 4 3 2 2 3 3 3 3 2 2 1 0 0 1 3 3 1 1 0 2 3 1 2 3 4 5 6 5 4 3 3 5 5 5 6 6 7 5 7 6 6 6 5 4 4 5 5 5 4 5
11 9 7 10 8 3 8 11 17 21 19 15 16 16 14 18 10 13 12 9 10 13 18 18 17 18 19 20 19 19 21 21 20 19 18 16 16 17 16 13 13 6 4 5 3 3 3 3 3 3 3 3 3 3 3 4 4 3 2 2 3 5 3 3 2 0 3 2 2 3 4 4 4 5 4 3 3 4 5 6 5 6 6 6 5 6 6 5 5 5 5 5 6 6 6 6 6
9 10 5 5 5 2 4 4 16 15 10 19 21 16 12 4 11 19 10 6 5 16 18 17 18 18 17 19 20 18 19 21 19 18 17 15 17 19 17 16 15 17 17 14 9 4 3 2 2 2 2 4 4 5 5 4 4 3 3 4 4 3 3 3 3 2 2 5 4 4 4 4 4 5 4 4 4 5 4 3 3 4 5 4 5 6 6 6 6 6 5 5 5 5 5 6 6
7 7 5 8 8 2 6 14 11 13 12 23 22 18 13 15 9 9 10 5 12 17 18 16 19 20 18 16 15 17 20 19 17 14 17 15 15 15 16 17 16 15 15 16 15 13 4 3 1 0 1 0 1 2 3 4 5 4 4 4 4 6 4 0 1 3 3 3 5 4 4 4 4 4 4 5 5 4 4 5 5 4 4 5 6 5 6 6 6 6 6 6 6 6 7 7 7
11 12 5 6 7 4 6 15 17 13 11 25 26 18 18 10 15 11 9 13 10 19 18 17 17 17 16 18 17 15 15 13 13 18 20 19 14 13 16 14 15 14 15 15 13 14 17 14 8 4 3 2 0 1 1 2 3 4 4 5 6 5 4 0 0 1 1 3 4 5 3 3 3 3 3 3 4 5 5 4 6 6 6 4 5 6 6 6 5 5 5 5 4 4 4 4 4
6 13 10 9 9 9 4 9 13 16 9 18 21 24 20 17 11 12 11 11 15 20 19 18 17 16 15 16 16 17 16 14 14 17 16 14 14 14 16 15 14 13 11 13 14 16 16 15 15 10 7 3 2 0 1 2 3 3 4 5 5 7 2 3 2 2 5 5 3 3 2 2 3 3 3 3 4 5 6 6 5 4 6 5 4 4 4 4 4 3 3 3 4 5 6 6 5
5 8 9 11 7 6 5 4 8 12 9 5 10 7 7 12 13 13 8 9 17 21 19 15 14 14 15 15 15 16 16 17 17 13 13 13 15 16 16 15 15 13 11 11 16 16 13 12 11 11 14 12 5 3 1 1 2 3 2 3 5 6 4 2 3 4 6 6 3 3 3 2 3 3 3 3 3 4 5 6 6 7 7 4 4 4 4 3 4 4 4 4 6 6 7 6 6
7 11 10 7 7 3 4 5 1 7 3 10 20 12 6 11 14 14 13 11 18 18 18 17 16 15 14 14 15 16 18 17 18 16 14 14 13 14 17 16 17 16 13 14 15 14 16 14 12 11 15 15 14 9 4 2 3 4 5 4 3 4 6 6 5 5 6 5 4 4 4 4 4 4 2 2 3 3 4 5 6 6 6 6 6 5 4 4 4 5 4 6 6 7 7 7 7
6 9 9 6 7 6 13 15 7 9 8 24 25 12 10 12 13 14 9 11 18 18 16 17 16 16 16 15 16 17 17 17 19 19 19 17 14 13 15 17 16 17 17 15 14 15 16 16 16 16 17 18 17 15 14 5 2 3 2 4 5 3 3 4 5 5 6 8 7 5 4 4 5 4 3 2 3 3 4 5 6 6 5 5 6 5 4 5 5 5 6 6 6 7 6 7 6
6 4 6 8 10 5 6 14 7 11 11 8 20 13 10 11 11 11 10 18 18 18 16 16 15 17 15 13 13 15 16 17 17 19 19 14 15 14 13 15 15 15 15 17 16 15 16 16 16 16 17 17 15 18 15 15 5 2 2 3 2 3 4 4 3 3 4 5 8 7 5 5 4 5 5 4 3 4 5 5 5 5 5 5 5 6 6 5 4 5 6 5 5 6 5 6 6
7 5 7 8 12 10 9 10 12 13 20 16 18 17 15 13 13 14 15 15 21 19 16 15 14 14 15 14 14 13 16 16 18 17 18 15 12 15 14 13 14 15 14 16 16 15 14 14 14 15 15 15 15 13 14 12 14 6 3 2 2 3 4 4 4 4 3 4 5 8 7 5 6 3 5 4 4 5 4 4 4 5 6 6 5 5 6 5 5 6 7 6 6 5 6 7 7
10 9 8 10 14 12 12 9 8 20 20 23 20 22 17 15 15 16 14 14 18 16 15 14 13 14 12 12 15 16 15 17 16 15 17 15 15 14 13 13 13 14 14 16 16 15 14 14 13 15 15 16 15 14 15 14 15 14 12 4 3 2 3 4 4 4 4 4 5 5 7 5 3 5 2 3 5 5 3 3 4 4 5 6 6 6 6 6 6 5 5 6 5 6 7 6 7
12 8 10 15 14 10 13 13 13 21 19 17 18 17 17 17 16 15 15 16 18 15 13 12 13 13 13 13 12 13 13 15 11 12 14 14 13 14 13 12 13 13 14 15 16 16 16 15 14 14 16 16 13 13 12 13 12 13 12 13 11 6 5 4 4 3 4 4 5 6 7 7 4 3 3 3 4 4 4 5 6 5 6 6 7 8 7 6 6 6 8 6 7 6 6 6 5
10 17 19 18 18 15 15 15 15 22 23 16 18 20 19 18 16 15 14 14 16 16 15 13 11 11 12 12 13 12 13 12 8 9 11 13 14 13 12 12 12 13 15 17 16 17 17 15 15 18 15 15 15 14 13 12 13 13 12 13 11 11 11 12 10 9 8 7 6 6 5 6 7 7 4 3 4 4 4 5 5 6 6 7 8 9 8 8 7 6 6 5 7 8 8 6 5
22 17 19 14 17 15 10 10 6 17 23 13 17 23 20 17 16 14 13 17 17 14 14 14 13 12 11 12 13 12 9 7 9 11 13 13 13 14 13 12 15 18 16 16 16 15 15 17 16 15 14 15 15 15 12 12 12 10 10 10 10 10 12 12 12 12 12 12 14 12 8 7 7 7 7 4 5 5 5 5 5 7 7 8 9 9 9 9 8 6 6 7 5 7 8 5 6
17 14 14 15 12 16 17 16 15 18 23 13 17 23 17 17 15 14 15 15 12 12 12 12 12 12 11 10 10 10 11 11 13 13 12 12 13 14 13 13 13 14 14 15 14 15 16 16 15 14 14 14 14 15 13 12 11 12 11 10 11 9 9 10 10 11 12 14 13 13 13 14 13 8 8 7 6 6 6 6 7 7 7 8 8 8 8 10 9 8 6 7 7 6 8 5 7
9 13 12 13 14 16 9 10 8 7 14 13 15 20 13 13 14 15 12 11 11 11 11 11 10 12 12 11 10 10 11 12 14 14 15 13 13 12 12 13 13 12 13 14 15 15 14 14 15 14 14 14 13 14 13 12 12 11 10 10 9 9 8 9 10 12 15 18 16 14 12 13 14 15 14 9 7 6 7 7 7 7 7 7 7 8 8 9 7 8 8 9 9 9 6 6 7
12 6 13 13 10 10 17 13 18 22 18 22 22 17 12 9 9 10 11 10 10 9 9 9 8 9 8 7 9 11 13 12 12 13 13 13 14 15 14 13 12 14 14 14 14 15 12 15 15 14 13 14 13 15 15 12 12 12 11 10 11 13 14 14 14 15 14 13 14 17 16 14 14 13 14 16 12 9 8 7 7 8 8 8 7 8 9 8 8 8 9 9 10 10 9 6 5
8 8 7 11 15 21 21 22 18 11 10 4 13 9 7 7 10 9 8 7 10 7 8 9 9 8 7 9 10 9 10 10 12 12 12 11 11 11 13 14 14 14 14 13 12 13 14 13 15 14 12 13 14 15 15 13 12 13 14 15 16 14 13 15 15 15 15 15 14 14 15 17 16 15 14 15 16 15 11 9 8 9 8 8 8 8 8 8 8 8 8 8 9 10 10 8 8
7 3 8 10 18 21 20 15 10 8 8 7 10 14 7 5 9 8 7 9 10 8 9 8 8 8 8 9 9 9 10 10 10 10 11 12 12 12 12 13 13 13 12 11 11 12 14 13 14 14 13 12 13 15 16 13 14 13 15 14 12 12 11 10 10 11 11 12 11 14 14 16 16 17 17 16 16 17 17 15 12 9 9 8 7 8 9 9 9 9 8 7 7 6 6 8 10
5 1 7 17 20 17 15 13 6 6 9 14 13 11 12 6 6 6 8 8 8 9 9 8 7 8 9 8 9 8 9 9 9 11 12 11 12 12 13 12 12 12 10 11 11 11 13 14 13 14 12 13 13 13 14 15 13 14 15 14 13 13 13 12 12 11 10 11 12 13 13 13 16 16 16 18 17 17 17 17 18 17 13 11 8 8 8 9 9 8 9 9 8 7 8 8 9
1 5 3 18 17 12 7 5 9 9 13 9 9 9 9 4 5 4 3 5 5 7 7 7 7 6 7 8 8 8 8 8 9 9 11 11 12 11 11 11 12 11 12 12 11 11 11 12 12 13 13 13 13 15 15 16 14 13 12 12 13 12 12 11 10 10 11 12 13 13 13 13 14 15 16 18 18 19 17 17 17 17 17 19 13 9 9 10 11 11 10 9 9 9 8 8 8
4 7 3 8 4 7 10 8 8 4 9 6 4 4 7 5 2 4 3 3 4 4 5 5 6 6 6 6 6 7 6 6 7 9 9 9 9 10 9 9 10 10 10 10 10 9 11 11 13 14 15 13 13 14 14 15 15 14 14 14 15 14 13 12 11 13 14 13 13 14 13 13 13 13 15 15 16 19 19 18 16 16 17 16 15 17 16 13 11 11 11 11 10 10 8 9 10
3 4 5 5 4 5 8 5 5 8 9 6 4 7 9 4 2 1 2 1 2 3 3 3 4 5 6 5 7 6 6 6 7 6 7 8 8 8 9 10 10 10 9 10 10 10 10 11 12 13 14 12 13 14 15 15 13 14 13 14 15 15 16 13 15 16 15 16 15 15 15 13 12 13 13 14 15 18 19 17 16 17 15 14 15 16 17 17 16 12 10 12 12 12 10 10 10
3 1 3 4 3 7 5 4 4 6 2 1 8 9 6 7 2 2 3 3 2 3 3 3 4 5 5 5 5 6 6 6 5 6 6 6 6 7 8 9 11 11 11 11 10 10 10 11 12 13 14 14 12 12 13 14 13 13 13 14 15 15 15 13 16 16 16 16 15 15 14 13 14 13 13 14 15 17 16 16 16 16 14 14 14 14 15 16 16 16 13 11 10 11 11 11 10
3 3 4 4 3 2 3 1 4 4 2 1 1 2 7 7 3 4 3 3 3 3 3 3 3 4 5 5 5 4 4 5 6 6 6 7 7 8 8 8 8 10 10 11 11 10 10 11 13 13 14 14 13 12 13 13 12 13 14 14 13 12 13 14 14 13 15 14 14 15 16 15 14 14 15 16 16 19 16 16 17 17 16 14 15 16 16 17 16 16 16 16 13 11 9 9 10
8 7 3 3 4 2 3 3 2 2 3 3 6 8 5 2 1 2 3 2 3 3 4 3 3 4 4 5 4 5 4 4 4 4 5 5 6 6 6 7 8 8 9 10 9 9 8 9 11 12 12 12 12 12 13 13 13 12 12 12 12 11 12 13 12 12 13 11 12 14 14 14 14 15 16 15 15 17 15 15 16 17 16 16 16 16 16 16 17 16 17 15 16 14 12 12 11
5 3 2 2 3 1 3 2 3 4 3 2 5 2 3 5 4 4 3 4 3 2 4 4 3 4 4 4 5 5 4 4 4 4 4 5 5 5 6 6 6 7 8 8 8 8 8 8 10 10 10 11 11 11 10 12 11 11 11 11 11 10 11 11 11 11 11 12 12 12 12 12 12 14 14 14 15 16 16 16 16 16 16 16 16 16 15 16 16 15 15 17 16 14 16 13 12
3 2 6 4 2 3 3 0 5 4 4 2 4 1 2 2 1 1 3 4 3 4 4 3 3 3 3 3 4 3 3 3 3 3 3 4 4 4 4 5 5 6 7 7 8 7 7 8 9 9 10 9 10 10 10 9 9 9 10 10 11 11 10 9 9 10 10 11 12 12 13 13 12 12 13 14 15 15 16 17 16 16 16 16 16 16 16 15 15 16 15 14 17 15 16 17 15
3 4 3 1 2 1 2 6 5 7 5 2 1 1 1 3 0 3 3 4 4 4 4 4 2 2 3 3 3 2 2 2 2 2 3 3 3 4 3 4 4 4 4 6 6 6 7 7 7 8 8 8 10 10 10 9 9 9 10 9 10 10 10 11 12 12 12 11 11 11 11 12 12 12 12 12 15 15 15 16 16 17 17 16 17 16 15 14 15 15 14 16 16 16 16 17 14
1 4 3 2 1 4 2 2 1 1 4 1 2 3 1 2 1 4 4 4 4 4 5 4 3 2 2 2 3 2 1 2 2 1 1 2 3 3 3 4 4 4 4 4 4 4 4 4 5 6 6 8 8 8 9 9 9 9 9 9 10 10 10 11 10 11 10 11 11 11 11 12 13 13 12 12 14 16 16 17 16 16 17 17 17 17 15 15 15 13 16 15 15 14 15 15 15
6 2 3 2 2 2 4 2 1 2 1 2 2 3 4 7 3 5 7 7 5 5 4 4 3 2 1 2 2 3 1 1 1 2 1 2 3 3 2 3 3 4 4 3 4 4 4 4 4 4 5 5 5 5 5 5 5 5 6 7 8 8 9 9 9 9 9 11 12 12 12 12 13 14 14 14 15 15 16 16 16 16 15 16 16 17 17 15 13 13 14 13 14 14 13 15 15
6 0 5 1 3 1 2 1 1 0 2 2 1 2 2 4 6 10 9 6 5 4 4 4 3 3 1 1 1 2 0 1 0 1 1 1 2 2 3 3 3 4 3 3 4 4 4 4 4 4 4 4 4 5 5 5 5 5 6 5 5 5 6 7 8 9 10 11 11 11 12 13 13 12 13 14 14 15 16 17 16 16 17 16 16 16 15 15 14 14 12 12 14 14 17 15 14
10 10 7 6 3 1 1 2 2 1 1 3 2 1 1 2 3 7 7 6 5 4 3 3 2 3 3 1 1 2 1 0 0 0 1 1 2 2 3 2 2 3 2 3 4 4 4 4 4 4 5 5 4 5 4 5 5 5 6 6 6 6 7 7 7 8 8 9 10 10 11 11 11 12 13 14 15 16 16 16 17 16 17 16 17 17 15 16 15 14 14 15 14 15 15 15 15
2 3 4 5 5 5 3 1 1 1 1 0 1 1 1 1 2 4 4 4 4 3 2 1 2 3 2 1 0 1 1 0 0 0 1 1 1 1 2 2 2 3 3 4 4 4 4 4 4 4 4 4 4 5 5 5 5 5 6 6 6 5 5 7 6 7 8 9 9 10 10 12 12 12 12 14 15 14 14 16 16 17 17 17 17 16 15 15 15 17 17 11 13 15 14 17 16
Wind_Direction
311 310 310 300 280 260 300 232 263 178 237 238 258 251 339 64 68 201 250 163 123 26 37 57 26 360 21 22 330 0 33 36 45 48 134 146 248 246 126 280 113 118 122 132 132 140 142 147 146 143 144 144 142 139 138 140 142 140 138 140 139 119 124 127 136 133 131 127 133 127 134 140 137 133 139 140 133 135 129 126 117 117 115 118 113 119 119 118 115 115 115 106 91 93 91 91 89
311 311 301 285 264 303 243 170 256 255 213 252 235 231 122 94 36 184 348 66 68 61 353 29 47 353 28 320 319 258 58 67 62 94 79 136 189 27 273 257 125 123 125 132 141 143 146 151 152 144 145 147 145 141 141 142 145 148 144 141 146 125 123 127 127 135 126 135 134 133 133 132 130 135 145 162 147 100 90 76 63 72 66 49 80 79 77 105 111 101 93 95 103 96 95 97 96
306 309 302 291 257 215 294 291 260 269 259 251 256 137 163 109 41 58 51 46 50 47 28 74 330 5 253 239 72 10 99 51 90 86 88 127 123 180 226 247 122 123 127 136 146 145 145 151 152 146 147 148 144 144 145 144 148 148 139 144 145 136 131 130 125 118 119 133 132 134 132 129 129 136 156 195 173 121 108 94 94 80 78 60 50 80 90 81 83 112 109 105 100 106 104 102 100
291 272 276 302 308 172 268 250 242 266 272 272 317 342 80 34 74 67 59 47 40 333 219 143 213 30 340 21 13 285 59 62 31 116 125 201 82 159 176 215 121 129 125 139 150 142 143 150 150 145 147 146 144 143 147 149 148 149 146 147 143 144 135 125 120 114 119 128 129 131 129 133 138 145 122 110 108 92 69 74 103 96 103 81 64 83 95 84 89 85 89 104 114 101 122 109 101
275 263 244 291 304 241 249 235 263 236 253 263 27 26 68 75 57 73 64 70 72 349 261 73 110 346 47 77 344 28 31 95 62 62 86 90 124 141 202 158 128 122 126 138 148 136 135 148 147 142 146 147 145 144 148 149 148 152 153 153 144 142 138 129 120 121 125 129 130 129 130 137 152 130 111 101 97 98 97 92 97 104 108 113 111 84 89 88 90 92 90 90 91 115 114 125 112
279 259 248 240 241 355 269 291 248 246 277 314 310 113 98 83 70 58 82 72 103 331 14 305 359 144 140 49 18 69 336 4 77 48 90 54 113 165 189 143 109 126 128 142 134 126 140 149 145 142 146 146 145 146 150 152 154 153 155 152 149 154 141 135 133 131 137 136 139 134 150 169 116 132 112 113 110 103 101 98 100 100 107 144 239 157 122 108 81 99 96 93 107 112 122 154 118
297 319 191 212 257 214 269 258 261 280 247 238 265 254 97 62 68 334 105 119 33 96 33 333 357 323 157 106 78 53 28 17 64 41 54 138 162 164 166 156 121 118 121 130 120 124 141 146 142 143 143 147 147 148 153 155 157 155 153 154 153 157 146 138 141 136 140 142 150 144 83 40 141 100 129 138 112 110 110 113 120 111 113 189 90 81 89 144 170 92 101 91 94 96 58 57 105
261 255 172 196 236 169 218 252 270 273 285 298 360 355 38 86 65 41 13 329 126 219 220 113 333 314 119 225 100 50 55 61 84 96 94 100 73 110 158 191 111 117 111 86 104 119 137 139 140 141 144 148 149 151 153 156 158 156 157 157 155 159 154 155 140 130 141 151 141 105 84 71 41 114 111 109 118 115 108 106 98 95 88 98 101 128 203 134 173 93 77 92 79 90 64 53 57
246 225 255 290 240 228 225 223 244 244 267 280 262 27 73 71 88 37 235 89 150 106 173 176 118 310 43 68 79 89 70 78 82 82 93 88 56 339 259 158 114 107 95 103 115 126 137 138 138 141 143 146 149 153 154 154 155 159 159 156 160 162 157 159 152 157 139 127 122 122 113 106 89 93 109 123 122 123 114 114 100 124 132 113 108 50 63 118 112 114 82 81 123 62 68 63 53
245 188 216 246 216 238 233 231 243 244 254 256 255 165 106 108 136 159 11 227 88 119 72 23 40 312 82 106 111 52 56 82 85 85 83 92 120 237 268 90 107 105 99 116 125 136 140 141 139 140 144 143 147 152 151 150 157 163 160 159 165 172 159 161 167 162 166 149 153 148 152 140 145 132 166 147 146 132 148 123 144 136 149 124 108 95 75 88 83 135 137 88 117 29 42 115 138
230 206 319 242 211 236 232 237 235 244 240 251 244 86 80 64 48 106 158 313 103 81 95 73 243 215 102 60 62 146 111 85 81 80 79 69 52 18 46 82 102 104 108 112 125 135 136 138 135 138 140 141 144 150 151 151 161 167 167 165 169 176 177 180 176 178 169 181 176 179 194 209 177 186 216 246 190 163 162 173 166 201 150 207 135 120 136 106 80 7 56 187 60 201 220 300 205
203 220 145 235 242 214 215 248 249 251 240 221 187 69 77 96 63 208 178 216 160 164 133 146 356 341 89 100 86 94 74 72 72 84 89 88 65 29 57 71 83 97 112 120 115 134 139 135 131 139 137 136 140 145 146 152 163 169 171 174 174 179 185 190 196 191 189 191 208 203 210 214 199 203 172 94 94 131 165 187 188 226 209 201 210 171 183 171 185 245 283 268 250 279 240 268 239
233 195 190 222 225 239 234 222 236 270 295 151 83 37 112 126 220 323 21 21 30 140 141 152 321 5 80 69 113 91 80 74 86 100 88 77 63 21 60 86 88 98 105 117 128 109 128 143 139 149 140 135 133 141 142 152 161 161 166 172 184 184 188 193 200 206 199 206 214 231 216 224 216 225 162 129 127 128 174 163 168 221 228 241 262 234 187 188 208 226 220 220 234 248 259 257 277
238 193 214 228 205 242 241 252 254 244 252 97 77 121 79 42 35 20 1 252 37 56 344 10 26 359 104 118 110 75 81 88 85 77 78 82 71 36 51 73 75 77 109 122 120 140 171 152 150 145 142 136 135 138 145 149 152 160 164 169 172 169 140 132 224 347 334 337 350 308 201 228 232 233 166 151 160 158 163 159 139 227 258 231 233 243 233 233 242 254 247 246 244 251 254 252 250
230 147 110 206 262 221 230 240 220 237 272 77 142 128 105 50 58 19 0 26 61 72 103 53 345 346 344 127 71 77 96 92 84 72 75 77 71 54 43 60 70 60 77 73 107 143 148 148 139 142 140 150 151 150 149 154 152 152 156 162 166 162 140 156 210 238 267 343 43 30 348 270 224 214 184 188 188 190 188 187 197 206 248 261 239 237 242 245 246 250 246 251 250 252 254 264 261
234 217 117 194 233 233 208 230 235 236 270 84 22 85 90 74 23 334 48 343 96 63 31 58 45 49 57 64 85 97 99 98 90 93 85 79 75 74 75 74 63 57 68 108 137 62 87 92 130 122 146 199 153 152 160 149 155 153 152 154 148 157 168 174 182 235 268 290 326 342 345 298 238 224 209 205 209 206 206 202 206 208 215 239 247 246 255 261 264 259 262 261 262 263 267 269 272
234 242 182 205 225 225 210 214 213 210 150 104 199 188 103 62 3 72 286 258 126 69 75 48 56 53 62 76 85 87 86 88 100 102 104 108 102 78 66 73 79 49 68 85 96 140 111 178 101 151 177 223 160 133 149 135 150 144 133 136 132 132 139 159 179 190 227 240 230 244 254 254 253 229 219 218 210 213 217 215 218 213 217 220 226 243 256 264 264 265 269 272 268 270 261 260 266
207 216 202 208 209 213 213 226 207 155 212 81 47 31 69 67 72 41 310 63 96 88 77 81 69 72 73 77 83 95 102 105 109 101 105 111 112 103 86 64 74 62 49 83 81 125 140 137 134 84 85 244 68 37 117 155 188 163 157 148 147 142 147 156 183 218 212 223 211 222 229 235 229 242 231 207 210 208 213 213 220 221 217 217 220 227 236 249 264 268 259 256 259 262 278 260 251
207 213 211 217 199 211 224 242 219 280 74 107 72 52 64 40 20 346 59 51 40 34 24 35 73 77 68 71 88 92 97 93 95 97 84 80 77 83 95 98 64 94 71 29 28 64 119 129 127 164 102 69 227 148 88 201 158 180 181 171 169 171 168 172 188 205 214 214 207 207 220 231 235 232 236 205 201 205 202 204 213 217 220 218 213 216 222 228 240 251 259 259 259 259 253 249 247
215 219 215 222 187 204 230 236 245 230 148 113 85 69 64 36 38 344 71 59 45 40 13 21 30 54 55 64 74 77 79 73 55 56 64 54 57 93 107 98 72 44 44 37 39 10 33 76 139 186 133 123 32 155 160 181 175 187 206 176 177 183 175 187 195 215 226 226 221 206 205 225 233 231 242 256 218 226 218 203 206 209 213 217 218 215 218 221 229 237 239 241 249 244 241 239 241
179 229 219 207 214 222 198 220 209 250 181 97 93 85 70 47 49 42 25 59 36 38 32 34 38 53 65 64 68 73 69 66 68 62 63 53 53 50 54 64 62 60 43 23 38 28 20 10 19 73 137 135 188 60 28 305 143 258 250 211 189 187 185 184 192 203 213 243 249 228 224 229 229 221 226 217 217 224 211 170 191 201 201 221 209 220 217 224 226 231 234 236 231 235 232 236 238
185 218 234 243 203 228 240 219 195 201 101 53 65 69 90 70 45 46 43 53 34 30 36 41 58 63 68 70 65 66 61 58 56 55 50 43 31 27 27 46 74 80 83 32 36 17 21 9 26 5 23 30 63 280 155 253 249 207 308 295 315 305 195 167 166 169 193 208 232 266 277 281 283 258 223 220 220 217 223 201 179 187 193 219 193 216 219 223 218 207 219 222 224 225 227 230 231
231 196 224 247 258 254 214 240 198 174 105 98 77 88 80 74 69 44 46 35 355 52 53 54 46 38 35 37 41 44 48 59 58 48 51 46 38 30 21 22 12 35 42 46 18 72 40 22 6 4 344 299 207 195 189 204 198 184 209 220 234 267 283 166 182 180 222 256 200 214 267 288 286 274 249 223 231 229 236 222 191 174 189 232 210 198 209 211 223 219 214 225 222 213 223 227 232
221 217 194 221 248 272 292 217 110 115 107 98 92 80 74 82 66 38 56 357 355 22 61 58 53 47 42 41 35 39 36 32 35 41 37 34 34 31 14 10 16 20 36 30 74 59 10 21 0 15 342 346 342 344 327 311 273 248 181 258 263 256 268 289 38 301 210 194 204 206 215 233 249 272 262 245 239 238 242 219 204 196 197 209 216 192 192 209 218 225 230 247 255 259 254 246 227
200 236 189 191 205 70 43 91 83 88 95 101 78 70 68 72 81 59 40 24 332 49 62 58 57 54 49 44 35 32 34 31 30 30 34 31 28 27 21 15 3 11 18 43 38 36 58 33 27 350 338 330 342 340 344 333 333 322 325 280 234 238 237 225 176 348 323 267 220 214 208 246 269 264 275 257 242 245 242 232 208 208 204 206 204 204 187 204 215 217 219 226 234 242 244 247 230
199 217 218 113 139 112 92 130 104 96 97 88 71 60 37 51 71 55 33 338 25 66 65 61 60 57 54 52 46 38 37 33 29 29 30 28 25 25 19 16 11 17 15 10 8 31 51 70 30 3 345 11 360 349 332 332 327 328 332 319 304 294 268 220 150 147 231 280 265 229 206 201 236 271 283 289 271 264 275 285 261 221 203 210 205 200 199 198 207 210 219 226 233 239 243 243 221
170 215 215 164 125 123 103 91 75 90 85 87 80 55 40 26 62 45 347 17 60 76 73 62 60 58 57 59 58 49 44 37 32 28 33 29 27 27 20 16 15 11 12 15 7 356 0 14 25 98 11 85 33 340 341 343 330 326 333 313 301 281 269 177 140 177 206 249 267 261 218 195 206 234 255 274 292 281 257 264 283 278 231 214 215 226 205 199 201 201 208 220 225 232 240 245 242
178 214 148 151 92 40 114 104 108 94 82 90 88 71 52 28 50 9 12 37 47 70 63 63 60 58 55 54 53 53 54 39 33 35 32 27 25 22 24 20 12 12 15 9 6 5 5 12 357 17 43 49 31 313 336 318 327 326 298 284 280 279 276 191 233 220 258 250 251 253 227 201 196 224 230 266 282 292 290 252 241 253 257 238 212 211 220 217 207 206 209 219 229 236 256 268 262
205 201 157 113 80 56 3 127 113 108 127 98 85 53 35 29 36 359 39 51 55 62 59 53 54 53 53 52 51 50 48 46 41 40 31 31 27 22 26 21 17 16 14 11 10 14 12 8 1 4 9 25 54 346 329 323 307 287 297 302 308 294 344 7 345 275 242 243 254 273 241 236 218 208 221 230 261 281 292 298 293 264 251 251 251 237 222 223 215 212 242 242 252 255 259 260 264
193 165 125 135 123 90 12 114 110 117 142 91 76 69 27 35 19 10 354 68 63 62 60 55 51 49 46 47 50 50 45 44 47 44 38 31 29 27 27 22 21 21 15 15 15 17 13 11 9 8 1 352 342 353 338 234 240 264 276 297 311 320 339 341 300 285 267 236 212 231 223 245 279 257 213 230 227 262 280 288 291 294 298 290 270 269 267 246 233 226 228 230 238 233 235 234 235
179 170 142 149 128 71 31 35 326 135 98 78 93 101 78 46 28 17 18 37 65 63 61 58 52 47 47 44 45 47 44 41 44 44 47 38 27 26 28 25 25 24 25 21 20 15 19 19 12 11 4 3 357 337 270 267 279 314 314 321 323 342 337 338 329 317 322 308 266 232 204 200 213 243 258 231 248 242 268 283 284 277 279 286 288 276 255 259 243 236 223 230 238 240 236 232 227
171 177 165 162 128 110 38 18 345 124 80 97 90 82 84 64 46 27 17 53 67 63 52 51 52 53 47 42 42 43 41 36 35 36 33 34 32 31 25 25 23 27 29 25 23 21 23 19 16 14 9 7 1 358 351 291 225 225 287 316 320 340 337 334 327 327 326 322 322 298 249 203 190 185 199 250 278 257 251 262 270 280 275 272 274 274 263 248 244 244 237 224 235 243 240 245 230
187 183 167 152 114 105 70 356 318 133 97 54 102 116 103 74 57 49 28 59 58 62 56 50 45 48 49 48 44 43 39 34 30 30 31 31 30 29 29 25 23 27 28 27 25 24 26 23 22 17 14 7 2 358 352 351 307 228 215 251 304 310 306 295 289 301 311 315 314 314 299 268 212 208 196 190 217 269 280 273 275 281 273 260 256 258 258 255 251 254 257 248 230 243 246 255 252
172 193 176 142 116 87 79 60 27 88 93 80 89 93 82 85 70 56 42 51 63 55 50 53 50 45 49 48 46 44 42 38 31 24 26 26 29 30 29 24 24 25 28 29 27 25 25 24 24 22 17 12 9 2 358 354 355 331 264 257 242 280 302 296 290 289 290 293 302 311 324 329 296 230 197 192 202 222 238 258 272 281 292 292 283 271 260 253 246 240 252 250 243 244 246 247 253
168 180 168 119 101 97 100 97 93 83 82 92 90 87 87 80 74 64 59 54 65 62 55 45 49 54 43 43 46 43 43 43 35 27 26 25 26 27 27 25 24 25 26 26 27 26 26 25 24 24 22 17 12 8 6 5 1 1 355 315 274 293 293 294 290 290 289 291 285 281 296 322 318 312 287 188 178 189 214 253 275 276 283 289 289 283 275 269 266 260 245 254 248 233 233 237 240
167 184 81 102 95 95 102 98 96 93 81 79 80 89 84 75 69 69 68 62 67 64 57 54 49 48 50 50 47 47 46 47 36 32 31 31 29 27 26 23 25 24 25 25 27 27 25 24 25 25 23 18 15 15 14 14 7 6 359 1 357 347 321 309 295 304 312 303 296 296 306 307 300 277 285 273 265 245 233 235 245 259 271 271 271 272 271 264 252 255 259 253 261 271 263 254 254
114 86 101 103 101 91 96 99 99 97 83 72 87 84 78 71 67 67 69 74 71 66 64 59 52 50 49 50 53 52 48 43 33 34 36 36 32 26 27 26 25 28 27 24 26 25 24 23 21 26 18 16 18 14 16 16 15 7 5 7 356 356 1 357 356 356 342 320 299 296 292 293 306 310 284 251 241 250 250 249 250 249 248 256 259 258 261 260 249 241 246 242 246 255 259 256 260
102 103 105 106 106 113 116 95 78 90 94 87 86 81 73 72 67 65 64 65 64 69 72 68 63 55 51 50 52 51 53 51 37 38 33 32 29 28 26 26 23 27 22 23 26 25 22 21 24 22 19 17 19 16 12 15 15 12 7 6 358 7 11 7 4 7 360 358 354 340 320 305 294 293 293 266 248 235 238 237 240 248 248 248 247 248 249 252 257 250 239 253 235 242 254 223 235
105 111 108 110 105 99 88 96 103 97 92 96 88 84 76 74 74 67 63 69 72 72 73 76 72 67 58 51 50 49 44 39 37 36 32 30 29 29 28 26 27 27 22 23 22 23 23 23 21 19 19 18 17 14 12 14 8 9 9 8 12 9 18 14 10 5 5 4 357 356 353 347 332 307 286 277 263 255 246 243 239 238 244 247 253 253 246 244 241 244 237 239 257 244 250 226 216
89 120 127 116 131 123 123 104 95 73 107 112 87 80 76 80 75 74 73 72 78 78 80 79 74 72 68 58 47 44 43 37 35 30 27 25 28 28 28 27 24 22 22 21 21 23 22 22 19 19 20 18 15 14 11 9 7 5 8 7 9 23 14 6 12 12 11 7 1 354 352 350 348 347 332 300 279 262 253 247 245 242 245 244 251 259 257 252 241 238 236 236 237 257 246 254 209
43 51 116 127 128 115 119 110 98 94 101 115 96 79 67 40 62 73 69 68 74 67 69 70 71 76 78 73 60 49 45 37 35 30 28 23 23 25 23 23 21 24 22 19 18 21 20 19 18 18 20 17 14 11 11 5 6 11 8 8 13 15 19 16 10 13 9 2 358 3 354 349 349 348 347 345 327 297 281 267 255 253 250 249 251 257 262 262 252 238 232 233 230 238 252 248 246
83 50 18 124 122 110 111 124 122 124 139 183 103 82 71 87 75 65 65 70 65 63 68 62 60 61 57 56 53 52 51 43 38 34 29 27 26 23 23 23 24 23 23 17 17 20 19 18 18 18 19 18 15 12 9 9 12 13 11 13 14 14 13 12 11 4 357 1 358 350 352 356 353 351 351 348 346 338 317 294 282 268 256 250 245 249 257 262 263 262 249 242 241 235 243 246 251
87 17 340 132 116 121 132 133 124 129 146 166 108 111 109 131 99 98 95 76 74 67 62 62 58 49 50 50 50 45 41 40 38 37 31 28 24 25 27 28 23 23 21 16 18 21 20 18 19 17 18 17 14 12 11 11 15 16 17 16 17 14 11 12 2 2 358 355 353 354 354 355 358 356 355 352 349 347 344 336 316 293 284 272 256 254 254 255 257 258 262 254 252 250 234 250 249
38 322 310 120 128 135 144 149 149 119 78 62 80 107 123 113 89 103 100 89 81 72 66 61 56 58 50 51 53 47 40 36 33 30 30 28 25 23 26 25 24 22 17 17 19 20 19 18 20 19 17 17 15 13 16 16 16 15 15 14 13 13 9 1 358 360 356 353 355 357 355 354 357 358 355 356 354 352 349 344 343 336 320 297 285 273 263 259 257 254 254 258 256 246 245 248 254
23 322 350 136 145 140 85 41 92 97 95 87 102 118 91 88 108 60 52 89 76 71 68 64 62 57 58 54 46 48 44 34 32 30 28 24 22 23 23 26 24 22 21 19 18 19 19 17 20 20 21 19 15 14 16 16 17 17 16 13 13 11 4 0 355 360 358 357 358 357 359 355 356 355 357 355 353 353 351 345 341 340 338 333 317 295 281 274 265 261 256 252 248 246 238 239 244
353 343 38 114 100 93 80 56 55 66 94 119 123 92 96 95 97 112 89 50 77 81 74 72 68 61 59 57 51 44 43 40 30 32 27 22 20 21 22 24 25 23 20 19 17 17 20 17 18 21 21 19 15 15 17 16 16 15 16 13 13 8 5 3 3 2 1 358 360 359 357 357 355 353 356 353 351 353 347 345 343 340 337 333 331 325 315 301 285 271 262 255 250 246 240 236 234
308 319 71 98 129 95 103 91 86 67 50 5 333 134 126 127 117 33 61 58 44 98 80 79 73 69 58 58 55 44 38 36 34 29 28 22 16 17 17 22 22 21 19 18 18 16 18 20 17 22 21 17 14 15 14 16 15 17 15 13 12 8 5 4 4 5 1 360 1 359 358 356 354 352 351 351 354 351 346 343 341 339 335 334 331 332 329 323 313 295 278 267 256 250 245 240 237
45 359 111 111 54 95 91 91 73 76 74 73 47 64 67 113 153 131 106 100 55 70 84 68 78 74 67 55 57 50 42 32 30 29 22 21 18 19 17 18 16 17 18 19 18 16 17 18 17 20 21 18 16 15 16 15 15 15 15 13 11 10 7 4 6 4 0 358 357 355 354 352 353 351 351 350 352 348 346 343 339 335 335 332 331 328 327 324 320 315 300 283 273 260 251 246 242
8 83 85 88 127 86 113 100 44 47 119 199 9 90 49 40 89 130 116 115 90 67 69 63 68 77 76 63 54 60 42 29 27 23 17 14 16 12 14 15 15 14 17 13 13 14 14 16 16 18 19 15 15 13 16 16 16 16 12 11 12 8 10 8 4 1 359 356 355 355 354 354 352 352 353 349 347 347 345 343 344 341 335 331 327 329 325 324 324 319 315 304 287 275 269 259 248
13 36 349 121 141 154 122 69 84 70 23 19 75 66 81 87 28 140 129 90 77 75 82 74 64 74 77 67 61 53 43 37 27 24 17 17 17 11 13 10 9 11 12 12 10 13 13 15 15 19 16 14 12 13 14 16 17 16 13 13 10 9 11 6 5 1 357 357 356 353 353 353 349 349 346 348 342 341 342 340 338 336 332 329 329 326 325 323 322 322 319 313 305 291 276 264 260
319 327 46 61 36 119 119 149 160 169 145 5 337 30 189 151 206 127 118 99 109 86 91 83 69 76 69 86 63 51 36 29 29 22 17 19 14 15 13 7 4 9 7 6 7 9 7 13 13 13 14 13 13 12 12 16 14 13 12 13 12 12 12 6 6 2 355 356 357 352 352 349 347 347 346 340 340 339 338 337 337 335 334 332 330 328 326 324 323 319 317 315 312 307 295 279 264
288 22 21 45 6 314 93 68 103 109 126 68 7 47 41 115 44 77 113 141 122 129 93 76 67 73 88 81 74 55 43 29 32 20 16 15 20 18 13 7 3 5 4 360 4 2 7 9 8 9 9 9 9 10 13 13 11 10 10 11 11 11 9 6 4 2 1 0 355 352 349 348 345 341 339 338 339 339 337 336 335 335 333 330 330 329 326 324 323 319 314 311 311 312 305 297 286
297 19 39 284 260 352 89 43 60 83 53 45 92 31 37 82 126 172 190 145 136 119 116 96 74 92 93 98 96 86 42 48 23 18 18 10 12 18 17 11 5 5 6 4 358 358 1 0 5 3 4 5 8 7 7 8 5 8 8 7 8 8 8 7 3 358 0 1 356 353 349 345 342 341 338 338 336 338 338 336 334 334 334 333 329 327 324 321 321 317 312 311 308 311 309 303 297
17 44 294 265 81 124 117 117 239 80 92 137 174 150 154 152 236 166 177 159 164 167 133 129 122 119 102 112 119 99 77 59 29 14 18 23 18 14 7 10 5 2 6 358 353 350 355 356 359 357 357 3 2 2 2 2 3 3 2 2 5 5 4 2 360 357 357 356 356 353 349 349 349 343 339 336 336 336 336 336 334 333 333 332 331 329 326 322 320 314 312 308 306 307 307 308 305
89 142 251 66 335 25 333 93 73 63 62 119 251 170 166 196 159 168 189 177 179 168 143 140 142 116 108 101 96 99 91 73 13 354 356 14 7 1 5 9 353 349 357 348 347 342 348 355 351 354 351 351 351 349 352 351 357 357 355 355 356 357 0 359 355 354 355 355 354 353 351 348 344 344 341 340 339 338 336 334 334 332 331 330 330 331 327 323 319 314 315 311 310 310 307 302 301
16 345 15 359 106 102 51 191 198 142 155 77 183 138 240 206 171 182 177 168 159 159 158 157 150 128 126 112 112 110 112 111 359 353 2 353 350 357 348 5 344 341 342 341 337 335 341 337 344 338 339 339 345 345 347 350 345 346 345 344 350 352 352 354 351 351 354 353 351 348 347 348 348 342 341 340 338 337 335 333 333 331 329 328 328 327 327 321 317 315 311 310 312 314 310 305 304
344 15 10 6 358 212 142 30 73 110 156 147 142 313 245 314 132 158 151 156 156 164 165 154 150 135 127 126 123 128 110 132 183 303 352 326 330 346 328 342 333 322 334 337 332 330 316 325 328 330 336 334 344 338 342 337 335 336 343 341 343 345 346 348 348 347 352 348 346 347 345 345 339 343 342 341 339 337 335 333 330 330 329 328 327 326 325 323 318 315 311 308 305 306 305 305 306
334 5 43 322 359 9 46 338 65 45 87 207 96 220 128 205 1 111 134 138 138 169 159 201 159 140 141 145 161 165 150 182 203 239 302 282 292 309 303 318 330 329 327 336 315 327 319 319 314 320 325 324 336 330 336 329 329 326 335 332 335 335 333 338 343 340 346 345 344 345 341 342 343 339 342 339 337 336 333 332 330 328 327 325 325 322 321 321 319 315 311 309 307 304 301 302 304